Location: Kmicica-DOM
(53.1202°N, 23.2052°E)
Time: 17:16:18
(UTC+02:00)

USA 276 - Visible Passes

Search period start: 10 August 2022 00:00
Search period end: 20 August 2022 00:00
Orbit: 366 x 369 km, 50.0° (Epoch: 12 July)

Date Brightness Start Highest point End Pass type
(mag) Time Alt. Az. Time Alt. Az. Time Alt. Az.
11 Aug 4.1 04:21:20 10° SSW 04:23:26 17° SSE 04:25:33 10° ESE visible
12 Aug 4.6 03:18:14 10° SSE 03:18:34 10° SE 03:18:53 10° SE visible
13 Aug 3.8 03:46:50 13° SSW 03:48:33 20° SSE 03:50:54 10° ESE visible
14 Aug 4.5 02:44:06 12° SE 02:44:06 12° SE 02:44:57 10° ESE visible
14 Aug 2.9 04:15:55 10° SW 04:18:42 34° SSE 04:21:29 10° E visible
15 Aug 3.4 03:13:08 23° S 03:13:33 24° SSE 03:16:03 10° E visible
16 Aug 2.7 03:42:08 21° SW 03:43:39 38° SSE 03:46:30 10° E visible
17 Aug 3.6 02:39:18 23° SE 02:39:18 23° SE 02:41:03 10° E visible
17 Aug 2.4 04:11:07 12° WSW 04:13:48 46° S 04:16:43 10° ESE visible
18 Aug 2.4 03:08:17 40° S 03:08:29 41° S 03:11:21 10° E visible
19 Aug 4.7 02:05:28 13° ESE 02:05:28 13° ESE 02:05:54 10° E visible
19 Aug 2.3 03:37:17 26° WSW 03:38:35 46° S 03:41:29 10° ESE visible
